CW9804 Weather Reports


Display with metric or nautical units.
time (UTC)temp
F
wind
direction
speed
MPH
gust
MPH
rain 1hr
in
rain 24hr
in
rain mn
in
humidity
%
barometer
mb
20260904021913 63 134 0.0 0.0 0.00 0.00 0.00 85 1021.8
20260904020413 63 134 0.0 1.0 0.00 0.00 0.00 85 1021.6
20260904014913 64 134 0.0 1.0 0.00 0.00 0.00 83 1021.5
20260904013413 64 134 2.0 3.0 0.00 0.00 0.00 83 1021.2
20260904011913 65 155 0.0 2.0 0.00 0.00 0.00 82 1020.9
20260904010412 64 155 1.0 3.0 0.00 0.00 0.00 81 1021.2
20260904004912 65 151 1.0 3.0 0.00 0.00 0.00 81 1021.1
20260904003412 66 151 1.0 2.0 0.00 0.00 0.00 79 1021.2
20260904001912 66 151 0.0 0.0 0.00 0.00 0.00 79 1021.2
20260904000412 66 151 0.0 0.0 0.00 0.00 0.00 79 1021.1
20260903234912 66 150 0.0 0.0 0.00 0.00 0.00 78 1021.3
20260903233412 66 151 0.0 0.0 0.00 0.00 0.00 78 1021.1
20260903231912 66 151 0.0 0.0 0.00 0.00 0.00 77 1021.2
20260903230411 66 151 1.0 3.0 0.00 0.00 0.00 79 1021.1
20260903224911 66 149 1.0 3.0 0.00 0.00 0.00 78 1021.1
20260903223411 65 192 0.0 2.0 0.00 0.00 0.00 79 1020.8
20260903221911 66 192 2.0 3.0 0.00 0.00 0.00 77 1020.8
20260903220411 67 190 1.0 2.0 0.00 0.00 0.00 73 1020.9
20260903214911 67 190 0.0 2.0 0.00 0.00 0.00 73 1021.2
20260903213411 68 190 0.0 1.0 0.00 0.00 0.00 71 1021.0
20260903211910 68 190 1.0 2.0 0.00 0.00 0.00 69 1020.9
20260903210410 67 190 1.0 3.0 0.00 0.00 0.00 72 1020.8
20260903204911 67 190 0.0 2.0 0.00 0.00 0.00 72 1020.3
20260903203411 66 190 1.0 2.0 0.00 0.00 0.00 72 1020.5
20260903201911 67 190 0.0 2.0 0.00 0.00 0.00 72 1020.3
20260903200411 67 190 1.0 2.0 0.00 0.00 0.00 72 1020.3
20260903194911 67 193 0.0 1.0 0.00 0.00 0.00 71 1020.2
20260903193411 68 193 1.0 3.0 0.00 0.00 0.00 70 1020.0
20260903191911 68 193 1.0 2.0 0.00 0.00 0.00 69 1019.9
20260903190410 68 194 0.0 2.0 0.00 0.00 0.00 69 1019.7
20260903184912 69 194 1.0 2.0 0.00 0.00 0.00 68 1019.7
20260903183412 70 194 1.0 3.0 0.00 0.00 0.00 68 1019.8
20260903181911 72 194 0.0 1.0 0.00 0.00 0.00 64 1019.7
20260903180411 74 172 1.0 5.0 0.00 0.00 0.00 57 1019.5
20260903174911 75 174 1.0 4.0 0.00 0.00 0.00 57 1019.4
20260903173411 75 175 1.0 4.0 0.00 0.00 0.00 57 1019.4
20260903171911 77 254 1.0 2.0 0.00 0.00 0.00 55 1019.3
20260903170411 80 294 1.0 3.0 0.00 0.00 0.00 57 1019.2
20260903164910 82 301 2.0 3.0 0.00 0.00 0.00 55 1019.3
20260903163410 83 302 1.0 2.0 0.00 0.00 0.00 54 1019.2
20260903161910 83 302 1.0 2.0 0.00 0.60 0.00 51 1019.2
20260903160410 85 44 0.0 0.0 0.00 0.00 0.00 49 1019.3
20260903154910 87 44 0.0 0.0 0.00 0.00 0.00 42 1019.5
20260903153410 85 44 0.0 0.0 0.00 0.00 0.00 44 1019.5
20260903151910 84 44 0.0 2.0 0.00 0.00 0.00 41 1019.5
20260903150410 85 45 0.0 1.0 0.00 0.00 0.00 43 1019.3
20260903144911 85 45 2.0 3.0 0.00 0.00 0.00 44 1019.5
20260903143411 84 24 1.0 3.0 0.00 0.00 0.00 40 1019.6
20260903141911 85 333 1.0 3.0 0.00 0.00 0.00 41 1019.8
20260903140410 85 342 2.0 2.0 0.00 0.00 0.00 41 1019.9
20260903134910 85 331 2.0 3.0 0.00 0.00 0.00 40 1020.2
20260903133410 83 59 1.0 2.0 0.00 0.00 0.00 41 1020.4
20260903131910 83 84 2.0 4.0 0.00 0.00 0.00 45 1020.3
20260903130410 83 56 0.0 3.0 0.00 0.00 0.00 44 1020.2
20260903123410 84 360 1.0 5.0 0.00 0.00 0.00 40 1020.6
20260903121910 84 294 2.0 4.0 0.00 0.00 0.00 43 1020.6
20260903120410 83 12 0.0 4.0 0.00 0.00 0.00 43 1020.6
20260903114910 83 259 2.0 7.0 0.00 0.00 0.00 43 1020.7
20260903113410 82 68 1.0 4.0 0.00 0.00 0.00 46 1020.9
20260903111910 81 40 3.0 4.0 0.00 0.00 0.00 46 1021.0
20260903110410 81 90 1.0 3.0 0.00 0.00 0.00 50 1021.0
20260903104911 80 55 2.0 5.0 0.00 0.00 0.00 52 1021.2
20260903103411 79 91 1.0 3.0 0.00 0.00 0.00 54 1021.4
20260903101912 77 224 2.0 3.0 0.00 0.00 0.00 59 1021.7
20260903100411 77 309 1.0 3.0 0.00 0.00 0.00 61 1021.9
20260903094911 76 317 1.0 4.0 0.00 0.00 0.00 64 1022.2
20260903093411 75 13 1.0 3.0 0.00 0.00 0.00 64 1022.1
20260903091911 74 243 0.0 4.0 0.00 0.00 0.00 69 1022.4
20260903090411 73 315 2.0 5.0 0.00 0.00 0.00 71 1022.5
20260903084910 72 302 2.0 5.0 0.00 0.00 0.00 73 1022.6
20260903083410 72 314 2.0 5.0 0.00 0.00 0.00 73 1022.8
20260903034911 65 227 3.0 5.0 0.00 0.00 0.00 81 1021.4
20260903033411 64 232 3.0 4.0 0.00 0.00 0.00 84 1021.6
20260903031911 64 227 3.0 4.0 0.00 0.00 0.00 86 1021.7
20260903030411 64 222 3.0 5.0 0.00 0.00 0.00 88 1021.7
20260903024914 64 182 1.0 3.0 0.00 0.00 0.00 89 1021.7
20260903023414 65 182 0.0 3.0 0.00 0.00 0.00 88 1021.6